Regional Weather Roundup
Issued by NWS New Orleans/Baton Rouge, LA

Home | Current Version | Previous Version | Text Only | Print | Product List | Glossary On
Versions: 1 2 3 4 5 6 7 8 9 10 11 12 13 14 15 16 17 18 19 20 21 22 23 24 25 26 27 28 29 30 31 32 33 34 35 36 37 38 39 40 41 42 43 44 45 46 47 48 49 50
129
ASUS44 KLIX 261310
RWRLIX
NEW ORLEANS REGIONAL WEATHER ROUNDUP
NATIONAL WEATHER SERVICE NEW ORLEANS LA
700 AM CST WED NOV 26 2014

NOTE: "FAIR" INDICATES FEW OR NO CLOUDS BELOW 12,000 FEET WITH NO
      SIGNIFICANT WEATHER AND/OR OBSTRUCTIONS TO VISIBILITY.
      SKY/WX - SKY CONDITION AND SIGNIFICANT WEATHER.
      TMP - AIR TEMPERATURE.     DP    - DEWPOINT TEMPERATURE.
      RH  - RELATIVE HUMIDITY.   PRES  - PRESSURE.
      HI  - HEAT INDEX.          WCI   - WIND CHILL INDEX.

*  THESE STATIONS ARE NOT NWS OR FAA STATIONS AND ARE NOT UNDER
   NWS QUALITY CONTROL.

LAZ038-040-048-061>063-065>067-069-261400-
SOUTHEAST LOUISIANA

CITY           SKY/WX    TMP DP  RH WIND       PRES   REMARKS
N.O. AUDUBON     N/A     41  38  89 MISG        N/A
N.O. INTL ARPT PTCLDY    39  36  89 S3        30.26R
N.O. LAKEFRONT CLEAR     42  35  76 S6        30.27R
N.O. DOWNTOWN*   N/A     45  34  65 S5        30.27R
SLIDELL        CLEAR     31  28  89 CALM      30.25R
BATON ROUGE    CLEAR     33  31  92 CALM      30.25R
BOOTHVILLE     CLEAR     48  37  65 NW5       30.27R
BELLE CHASSE   CLEAR     34  31  88 S3        30.26R
BOGALUSA*        N/A     31  29  90 CALM      30.26R
NEW ROADS*       N/A     32  31  98 CALM      30.25R
GONZALES*        N/A     32  32 100 CALM      30.25R
HAMMOND*       CLEAR     32  30  93 CALM      30.27R
HOUMA*         NOT AVBL
PORT FOURCHON* SUNNY     46  41  81 CALM      30.30

$$

MSZ070-080>082-261400-
SOUTHERN MISSISSIPPI

CITY           SKY/WX    TMP DP  RH WIND       PRES   REMARKS
MCCOMB         CLEAR     30  27  88 CALM      30.23R
GULFPORT       CLEAR     34  31  88 CALM      30.23S
BILOXI         CLEAR     39  33  78 NW2       30.24R
PASCAGOULA     CLEAR     30  28  92 CALM      30.24R
STENNIS ARPT*  CLEAR     30  27  86 CALM      30.26

$$

COASTAL OBSERVATIONS
LAKE AND NEARSHORE STATIONS

STATION/POSITION TIME  TEMP    WIND        PRES    WAVE
                       AIR SEA DIR/SP/G            HT/PER
                 (UTC) (F)     (DEG/KT/KT) (MB)    (FT/S)
PASCAGOULA       1300   38     340/  5/  5 1023.4
WAVELAND YACHT   1300   38     260/  3/  4 1023.2
GRAND ISLE       1300   50 59   20/  3/  4 1025.0
SOUTHWEST PASS   1300   53                 1025.1
NEW CANAL        1300   43 54  190/  4/  5 1024.9
SHELL BEACH      1300   49 51   10/  3/  4 1024.5

OFFSHORE STATIONS

STATION/POSITION TIME  TEMP    WIND        PRES    WAVE
                       AIR SEA DIR/SP/G            HT/PER
                 (UTC) (F)     (DEG/KT/KT) (MB)    (FT/S)
64 S DAUPHIN ISL 1155   56 70  340/ 16/ 21 1024.3    5/ 6

$$




USA.gov is the U.S. government's official web portal to all federal, state and local government web resources and services.